KE0RUZ Weather Reports


time (UTC)temp
C
wind
direction
speed
KPH
gust
KPH
rain 1hr
cm
rain 24hr
cm
rain mn
cm
humidity
%
barometer
mb
20260507143059 13 235 4.8 11.3 0.00 0.00 0.00 58 1020.3
20260507141547 13 187 3.2 8.0 0.00 0.00 0.00 59 1020.4
20260507140042 12 201 1.6 8.0 0.00 0.00 0.00 66 1020.6
20260507134540 12 131 3.2 9.7 0.00 0.00 0.00 67 1020.6
20260507133044 11 203 1.6 4.8 0.00 0.00 0.00 73 1020.6
20260507131548 10 0 0.0 4.8 0.00 0.00 0.00 78 1020.7
20260507130058 9 129 0.0 3.2 0.00 0.00 0.00 83 1020.6
20260507124551 7 0 0.0 3.2 0.00 0.00 0.00 90 1020.4
20260507123040 6 0 0.0 1.6 0.00 0.00 0.00 93 1020.3
20260507121554 5 0 0.0 0.0 0.00 0.00 0.00 95 1020.3
20260507120251 3 0 0.0 0.0 0.00 0.00 0.00 94 1020.1
20260507114544 3 0 0.0 0.0 0.00 0.00 0.00 93 1020.1
20260507113047 4 0 0.0 0.0 0.00 0.00 0.00 93 1020.0
20260507111542 4 0 0.0 0.0 0.00 0.00 0.00 93 1020.0
20260507110057 5 0 0.0 0.0 0.00 0.00 0.00 93 1019.9
20260507104552 5 0 0.0 0.0 0.00 0.00 0.00 94 1019.8
20260507103112 5 0 0.0 0.0 0.00 0.00 0.00 94 1019.8
20260507101544 5 0 0.0 0.0 0.00 0.00 0.00 94 1019.7
20260507100055 5 0 0.0 0.0 0.00 0.00 0.00 94 1019.8
20260507094550 5 0 0.0 0.0 0.00 0.00 0.00 94 1019.8
20260507093115 5 0 0.0 0.0 0.00 0.00 0.00 94 1019.7
20260507091550 4 0 0.0 0.0 0.00 0.00 0.00 94 1019.9
20260507090053 3 0 0.0 0.0 0.00 0.00 0.00 94 1019.8
20260507084549 3 0 0.0 0.0 0.00 0.03 0.00 93 1019.8
20260507083047 3 0 0.0 0.0 0.00 0.03 0.00 93 1019.8
20260507081547 3 0 0.0 0.0 0.00 0.03 0.00 92 1019.9
20260507080054 3 0 0.0 0.0 0.00 0.03 0.00 93 1019.9
20260507074543 3 0 0.0 0.0 0.00 0.03 0.00 92 1019.7
20260507073051 3 0 0.0 0.0 0.00 0.03 0.00 92 1019.9
20260507071548 3 0 0.0 0.0 0.00 0.03 0.00 92 1020.0
20260507064550 3 0 0.0 0.0 0.00 0.03 0.00 91 1020.2
20260507063043 3 0 0.0 0.0 0.00 0.03 0.00 90 1020.3
20260507061547 3 0 0.0 0.0 0.00 0.03 0.00 90 1020.3
20260507060038 4 0 0.0 0.0 0.00 0.03 0.00 90 1020.4
20260507054602 4 0 0.0 0.0 0.00 0.03 0.00 89 1020.2
20260507053102 5 0 0.0 0.0 0.00 0.03 0.00 89 1020.3
20260507051555 5 0 0.0 0.0 0.00 0.03 0.00 87 1020.3
20260507050055 5 0 0.0 0.0 0.00 0.03 0.00 86 1020.4
20260507044556 5 0 0.0 0.0 0.00 0.03 0.03 85 1020.5
20260507043047 6 0 0.0 0.0 0.00 0.03 0.03 85 1020.3
20260507041601 6 0 0.0 0.0 0.00 0.03 0.03 85 1020.2
20260507040054 6 0 0.0 0.0 0.00 0.03 0.03 84 1020.2
20260507034549 6 0 0.0 0.0 0.00 0.03 0.03 83 1020.2
20260507033048 7 0 0.0 0.0 0.00 0.03 0.03 82 1020.1
20260507031545 7 0 0.0 0.0 0.00 0.03 0.03 81 1020.1
20260507030048 7 0 0.0 0.0 0.00 0.03 0.03 80 1020.1
20260507024546 8 0 0.0 0.0 0.00 0.03 0.03 78 1020.1
20260507023040 8 0 0.0 0.0 0.00 0.03 0.03 74 1019.9
20260507021539 9 0 0.0 0.0 0.00 0.03 0.03 71 1019.6
20260507020045 10 0 0.0 0.0 0.00 0.03 0.03 68 1019.3
20260507014606 11 0 0.0 1.6 0.00 0.03 0.03 63 1019.3
20260507013047 11 0 1.6 4.8 0.00 0.03 0.03 60 1019.2
20260507011554 12 0 0.0 4.8 0.00 0.03 0.03 58 1018.9
20260507010044 13 0 1.6 4.8 0.00 0.03 0.03 56 1018.9
20260507004549 14 0 0.0 1.6 0.00 0.05 0.03 57 1018.7
20260507003046 15 0 0.0 3.2 0.00 0.05 0.03 55 1018.6
20260507001558 14 39 0.0 9.7 0.00 0.05 0.03 54 1018.4
20260507000057 15 15 6.4 12.9 0.00 0.05 0.03 51 1018.0
20260506234604 15 30 4.8 11.3 0.00 0.10 0.03 50 1017.9
20260506233044 15 39 4.8 17.7 0.00 0.10 0.03 50 1017.7
20260506231548 16 31 8.0 17.7 0.00 0.10 0.03 51 1017.7
20260506230100 15 39 9.7 22.5 0.00 0.10 0.03 50 1017.4
20260506224549 16 26 8.0 22.5 0.00 0.10 0.03 53 1017.7
20260506223039 16 35 6.4 19.3 0.00 0.10 0.03 50 1017.6
20260506221555 16 29 4.8 17.7 0.00 0.10 0.03 51 1017.6
20260506220048 16 123 4.8 16.1 0.00 0.10 0.03 51 1017.8
20260506214547 16 44 6.4 14.5 0.00 0.10 0.03 49 1017.8
20260506213050 16 94 4.8 16.1 0.00 0.10 0.03 49 1017.8
20260506211552 16 30 8.0 20.9 0.00 0.10 0.03 52 1018.0
20260506210047 16 34 4.8 17.7 0.00 0.10 0.03 51 1017.7
20260506204539 16 27 3.2 14.5 0.00 0.10 0.03 52 1017.9
20260506203049 15 345 9.7 17.7 0.00 0.10 0.03 50 1018.2
20260506201547 16 101 3.2 12.9 0.00 0.10 0.03 54 1018.2
20260506200045 15 32 8.0 19.3 0.00 0.10 0.03 52 1018.4
20260506194546 16 16 6.4 19.3 0.00 0.10 0.03 52 1018.6
20260506193048 15 37 6.4 20.9 0.00 0.10 0.03 53 1018.8
20260506191553 15 39 3.2 20.9 0.00 0.10 0.03 54 1019.0
20260506190050 15 98 4.8 20.9 0.00 0.10 0.03 56 1019.1
20260506184543 15 17 6.4 14.5 0.00 0.13 0.03 57 1019.3
20260506183051 15 93 3.2 16.1 0.00 0.13 0.03 61 1019.5
20260506181601 15 65 3.2 16.1 0.00 0.13 0.03 56 1019.8
20260506180047 15 80 4.8 11.3 0.00 0.13 0.03 56 1020.2
20260506174543 15 32 4.8 17.7 0.00 0.13 0.03 53 1020.2
20260506173104 14 27 8.0 19.3 0.00 0.13 0.03 55 1020.0
20260506171547 14 44 3.2 20.9 0.00 0.13 0.03 55 1020.2
20260506170051 13 89 3.2 12.9 0.00 0.13 0.03 57 1020.3
20260506164543 13 37 4.8 16.1 0.00 0.13 0.03 57 1020.2
20260506163055 13 49 3.2 16.1 0.00 0.13 0.03 60 1019.8
20260506161541 13 338 3.2 11.3 0.00 0.13 0.03 62 1019.2
20260506160050 12 78 3.2 12.9 0.00 0.13 0.03 60 1018.9
20260506154600 12 31 3.2 14.5 0.00 0.13 0.03 60 1019.0
20260506153046 12 98 3.2 14.5 0.00 0.13 0.03 67 1019.1
20260506151544 11 141 3.2 12.9 0.00 0.13 0.03 66 1019.2
20260506150041 11 123 3.2 19.3 0.00 0.13 0.03 72 1018.9
20260506144553 11 93 4.8 17.7 0.00 0.15 0.03 74 1018.7